Regional Weather Roundup
Issued by NWS

Home | Current Version | Previous Version | Graphics & Text | Print | Product List | Glossary On
Versions: 1 2 3 4 5 6 7 8 9 10 11 12 13 14 15 16 17 18 19 20 21 22 23 24 25 26 27 28 29 30 31 32 33 34 35 36 37 38 39 40 41 42 43 44 45 46 47 48 49 50
000
ASUS43 KMKX 170700
RWRWI

WISCONSIN REGIONAL WEATHER ROUNDUP
NATIONAL WEATHER SERVICE MILWAUKEE/SULLIVAN WI
100 AM CST SAT FEB 17 2018

NOTE: "FAIR" INDICATES FEW OR NO CLOUDS BELOW 12,000 FEET WITH NO
SIGNIFICANT WEATHER AND/OR OBSTRUCTIONS TO VISIBILITY.

WIZ001-002-006>008-014>016-023>028-170800-
NORTHWEST WISCONSIN

CITY           SKY/WX    TMP DP  RH WIND       PRES   REMARKS
SUPERIOR ARPT  MOCLDY    17   7  64 SW7G17    29.90F WCI   8
ASHLAND        CLOUDY    15   4  61 SW15      29.92F WCI   0
HAYWARD        FAIR      14   5  67 S13       29.93F WCI   0
SIREN          FAIR      16   8  70 S9        29.94F WCI   4
CUMBERLAND     FAIR       9   1  72 S9        29.95F WCI  -5
RICE LAKE      FAIR      11   4  74 S8        30.00F WCI  -1
CHETEK         FAIR      12   4  71 S5        30.00F WCI   4
LADYSMITH      FAIR       8  -2  64 SE5       30.00F WCI  -1
EAU CLAIRE     NOT AVBL
MENOMONIE      FAIR      16   7  68 S9        30.02F WCI   4
NEW RICHMOND   FAIR      14   6  73 S9        29.97F WCI   1
OSCEOLA        FAIR      15   8  73 S10G16    29.99F WCI   2
$$

WIZ003>005-009-010-017-018-170800-
NORTH CENTRAL WISCONSIN

CITY           SKY/WX    TMP DP  RH WIND       PRES   REMARKS
MANITOWISH WTR MOCLDY     8  -3  61 S7        29.93F WCI  -3
ARBOR VITAE    FAIR       6  -6  58 S6        29.95F WCI  -5
WOODRUFF       FAIR       6  -6  58 S6        29.95F WCI  -5
RHINELANDER    FAIR       8  -4  58 SW10      29.97F WCI  -6
EAGLE RIVER    FAIR       7  -8  51 SW8       29.95F WCI  -6
LAND O LAKES   FAIR       6  -8  54 S5        29.95F WCI  -3
PHILLIPS       FAIR       9  -1  64 S8        29.97F WCI  -3
TOMAHAWK       FAIR       7  -4  60 CALM      30.00F
MEDFORD        FAIR       8  -1  65 S8        30.01S WCI  -4
MERRILL        FAIR       8  -3  59 CALM      30.03F
$$

WIZ029-030-035-036-043>047-170800-
CENTRAL WISCONSIN

CITY           SKY/WX    TMP DP  RH WIND       PRES   REMARKS
WAUSAU         FAIR       7  -2  66 S3        30.03F
MOSINEE        FAIR      10   1  67 S9        30.06F WCI  -2
MARSHFIELD     FAIR      11   1  64 S10       30.03F WCI  -3
STEVENS POINT  FAIR      10   0  66 SW6       30.09S WCI   0
WAUPACA        FAIR      14   3  61 S5        30.12F WCI   6
WAUTOMA        FAIR      13   3  64 S5        30.12F WCI   5
WISC RAPIDS    FAIR      11   1  64 S5        30.09F WCI   3
CAMP DOUGLAS   MOCLDY    14   4  63 CALM      30.10F
$$

WIZ011>013-019>022-031-037>040-048>050-170800-
NORTHEAST WISCONSIN

CITY           SKY/WX    TMP DP  RH WIND       PRES   REMARKS
ANTIGO         FAIR       8  -3  61 SW9       30.02F WCI  -6
SHAWANO        FAIR      15   1  55 CALM      30.10F
OCONTO         FAIR      13   0  55 S3        30.11F
STURGEON BAY   FAIR      15   3  59 S8        30.11F WCI   4
GREEN BAY      FAIR      16   4  59 SW5       30.12F WCI   9
MANITOWOC      FAIR      16   5  62 S8        30.15F WCI   5
APPLETON       FAIR      14   1  57 S9        30.10F WCI   2
CLINTONVILLE   FAIR      13   1  59 S5        30.10S WCI   5
OSHKOSH        FAIR      15   5  64 S7        30.12F WCI   5
$$

WIZ032>034-041-042-053>061-170800-
SOUTHWEST WISCONSIN

CITY           SKY/WX    TMP DP  RH WIND       PRES   REMARKS
LA CROSSE      FAIR      17   7  64 S10       30.12F WCI   5
SPARTA         FAIR      15   6  67 CALM      30.12F
VIROQUA        FAIR      13   7  77 S6        30.09F WCI   3
BOSCOBEL       FAIR      13   5  70 CALM      30.17F
PRAIRIE DU CHI FAIR      14   5  66 SE3       30.16F
PLATTEVILLE    FAIR      12   6  74 S12       30.16F WCI  -2
$$

WIZ056-057-062-063-064-067-068-170800-
SOUTH CENTRAL WISCONSIN

CITY           SKY/WX    TMP DP  RH WIND       PRES   REMARKS
REEDSBURG      FAIR      15   4  62 SW7       30.13S WCI   5
BARABOO/DELLS  FAIR      16   3  56 SW8       30.12F WCI   5
LONE ROCK      NOT AVBL
MINERAL POINT  FAIR      14   9  79 S7        30.14S WCI   4
MADISON        FAIR      15   5  64 S7        30.15F WCI   5
MIDDLETON      FAIR      16   6  65 SW6       30.16F WCI   7
WATERTOWN      FAIR      13   5  71 CALM      30.17F
MONROE         FAIR      14   7  73 S8        30.16F WCI   3
JANESVILLE     FAIR      16   7  67 CALM      30.20F
$$

WIZ051-052-058>065-066-070>072-170800-
SOUTHEAST WISCONSIN

CITY           SKY/WX    TMP DP  RH WIND       PRES   REMARKS
MILWAUKEE      FAIR      18   7  62 SW7       30.20F WCI   9
WAUKESHA       FAIR      14   5  67 S5        30.19S WCI   6
MILWAUKEE/TIMM FAIR      18   5  57 SW5       30.20F WCI  11
RACINE         FAIR      17   7  64 SW6       30.22F WCI   9
BURLINGTON     FAIR      16   8  70 SW6       30.20F WCI   8
KENOSHA        FAIR      17   6  62 SW6       30.21F WCI   9
FOND DU LAC    FAIR      17   3  54 SW8       30.13F WCI   7
SHEBOYGAN      FAIR      14   6  70 S6        30.15F WCI   5
WEST BEND      FAIR      16   5  62 S5        30.17F WCI   9
JUNEAU         FAIR      13   5  68 S6        30.15F WCI   4
$$

LSZ147-162-170800-
LAKE SUPERIOR

STATION/POSITION TIME  TEMP    WIND        PRES    WAVE
                       AIR SEA DIR/SP/G            HT/PER
                 (UTC) (F)     (DEG/KT/KT) (MB)    (FT/S)
DEVILS ISLAND    0600   17     230/ 15/ 18 1013.9F
SAXON HARBOR     0640   19     200/ 15/ 26 1012.2F
$$

LMZ867-665-643>646-170800-
LAKE MICHIGAN

STATION/POSITION TIME  TEMP    WIND        PRES    WAVE
                       AIR SEA DIR/SP/G            HT/PER
                 (UTC) (F)     (DEG/KT/KT) (MB)    (FT/S)
NORTHPORT PIER   0640   15                 1019.6F
KEWAUNEE LAKESHO 0630   18     220/  5/  8 1020.1F
SHEBOYGAN LAKESH 0600   19     240/  8/  9 1022.9F
PORT WASHINGTON  0640   18     240/  3/  6 1023.4S
MILWAUKEE LAKESH 0630   20     240/  7/  9   N/A
KENOSHA   LAKESH 0600   19      CALM  /  6 1024.0
$$

TC  - TEMPERATURE IN CELSIUS
VSB - VISIBILITY IN STATUTE MILES
WCI - WIND CHILL INDEX
HX  - HEAT INDEX





USA.gov is the U.S. government's official web portal to all federal, state and local government web resources and services.